Location: Newark
(25.6108°S, 54.5803°W)
Time: 13:55:54
(UTC+00:00)

Vanguard 1 - Visible Passes

Search period start: 30 October 2020 00:00
Search period end: 09 November 2020 00:00
Orbit: 649 x 3833 km, 34.3° (Epoch: 29 October)

Date Brightness Start Highest point End Pass type
(mag) Time Alt. Az. Time Alt. Az. Time Alt. Az.
30 Oct 12.5 04:59:52 11° ESE 04:59:52 11° ESE 05:00:00 10° ESE visible
30 Oct 11.1 07:12:35 15° SW 07:16:27 39° SSE 07:23:48 10° E visible
31 Oct 12.0 05:19:36 17° SE 05:19:36 17° SE 05:21:05 10° ESE visible
31 Oct 11.0 07:32:30 10° WSW 07:37:33 46° SSE 07:45:40 10° E visible
01 Nov 11.5 05:39:22 24° SE 05:39:22 24° SE 05:42:19 10° ESE visible
01 Nov 10.7 07:53:16 10° WSW 07:58:34 58° SSE 08:07:30 10° E visible
02 Nov 11.0 05:59:10 30° SSE 05:59:10 30° SSE 06:03:45 10° ESE visible
02 Nov 10.5 08:14:02 10° WSW 08:19:33 75° SSE 08:29:11 10° ENE visible
02 Nov 12.3 23:12:18 10° N 23:16:30 14° NNE 23:16:30 14° NNE visible
03 Nov 10.7 06:18:59 33° S 06:19:46 35° SSE 06:25:20 10° ESE visible
03 Nov 11.9 23:31:02 10° NNW 23:37:08 21° NNE 23:37:08 21° NNE visible
04 Nov 10.6 06:38:52 29° SSW 06:40:49 42° SSE 06:46:59 10° E visible
04 Nov 11.5 23:50:51 10° NNW 23:57:49 29° N 23:57:49 29° N visible
05 Nov 10.2 06:58:47 22° SW 07:01:47 55° SSE 07:08:35 10° E visible
06 Nov 11.2 00:11:15 10° NW 00:18:32 37° N 00:18:32 37° N visible
06 Nov 12.3 05:06:02 11° ESE 05:06:02 11° ESE 05:06:17 10° ESE visible
06 Nov 9.9 07:18:46 16° WSW 07:22:43 76° SSE 07:30:04 10° ENE visible
06 Nov 12.1 22:10:30 10° NNW 22:19:24 21° NNE 22:25:32 10° ENE visible
07 Nov 11.1 00:32:06 10° NW 00:39:16 44° NNW 00:39:16 44° NNW visible
07 Nov 11.8 05:26:05 18° ESE 05:26:05 18° ESE 05:27:42 10° ESE visible
07 Nov 9.8 07:38:49 10° WSW 07:43:37 76° NNW 07:51:20 10° ENE visible
07 Nov 11.9 22:30:00 10° NNW 22:40:50 29° NNE 22:47:12 12° E visible
08 Nov 11.1 00:53:17 10° WNW 01:00:00 44° WNW 01:00:00 44° WNW visible
08 Nov 11.2 05:46:12 27° ESE 05:46:12 27° ESE 05:49:10 10° E visible
08 Nov 10.1 07:59:40 10° WSW 08:04:34 52° NNW 08:12:18 10° NE visible
08 Nov 11.4 22:50:10 10° NW 23:02:10 40° NNE 23:07:54 16° E visible
